User: anonymous   Login
Location: Biharia
(46.4333°N, 22.8000°E)
Time: 03:10:02
(UTC+00:00)
Language:

Aureole 2 - Orbit

View from above orbital plane
View from above orbital plane
View from above satellite
View from above satellite

Ground track
Ground track

The orbit data is extracted from the following two-line orbital elements,

1 07003U 73107A   22019.54654668  .00007231  00000-0  26804-3 0  9992
2 07003  73.9274 300.8794 0370801 263.4331  92.4517 14.81772053461193
Epoch (UTC): 19 January 2022 13:07:01
Eccentricity: 0.0370801
inclination: 73.9274°
perigee height: 364 km
apogee height: 883 km
right ascension of ascending node: 300.8794°
argument of perigee: 263.4331°
revolutions per day: 14.81772053
mean anomaly at epoch: 92.4517°
orbit number at epoch: 46119

The dashed part of the orbit path shows where the satellite is in the earth's shadow,  

DLR